[[{"header":{"parameterUnit":"m.s-1","parameterCategory":2,"la1":30.2991,"la2":30.254,"lo1":-89.0895,"lo2":-89.0444,"dy":0.0017,"dx":0.0017,"nx":28,"ny":28,"refTime":"2024-04-23T21:00:00:Z","depth":"0","parameterNumber":2,"parameterNumberName":"U-component_of_CURRENTS"},"data":[0,0,0,0,0,0,0,0,0,0,0,0,0,0,0,0,0,0,0,0,0,0,0,0,0,0,0,0,0,0,0,0,0,0,0,0,0,0,0,0,0,0,0,0,0,0,0,0,0,0,0,0,0,0,0,0,0,0,0.3566,0.3567,0,0.362,0.3621,0.3621,0.3609,0.3608,0.3608,0.3607,0.3618,0.3619,0.362,0,0,0,0,0,0,0,0,0,0,0,0,0,0.3505,0.3506,0.3566,0.3567,0.3568,0.362,0.3621,0.3621,0.3609,0.3608,0.3607,0.3607,0.3618,0.3619,0.362,0,0,0,0,0,0,0,0,0,0,0,0,0,0.354,0.3506,0.3566,0.3571,0.3572,0.362,0.3621,0.3621,0.3609,0.3608,0.3607,0.3606,0.3617,0.3619,0.362,0.3652,0,0,0.3625,0.3625,0,0,0,0,0,0,0,0,0.3538,0.3542,0.3569,0.357,0.3572,0.361,0.3604,0.363,0.361,0.3592,0.3607,0.3606,0.3614,0.3616,0.3625,0.3652,0.3653,0.3625,0.3626,0.3626,0.3627,0,0,0,0,0,0,0,0.3535,0.354,0.3585,0.357,0.3572,0.3589,0.3591,0.3609,0.3605,0.3593,0.3593,0.3605,0.3614,0.3623,0.3625,0.3653,0.3625,0.3626,0.3627,0.3628,0.3755,0.3757,0,0,0,0,0,0,0.3533,0.3537,0.3583,0.3587,0.3555,0.3591,0.3594,0.3596,0.3606,0.3608,0.3606,0.3604,0.3621,0.3623,0.3625,0.3694,0.3626,0.3628,0.3629,0.3752,0.3755,0.3758,0,0,0,0,0,0,0.3532,0.3537,0.3581,0.3566,0.3573,0.3593,0.3596,0.3598,0.3611,0.3617,0.3616,0.3618,0.3621,0.3623,0.3658,0.3693,0.3629,0.363,0.3749,0.3753,0.3757,0.3811,0,0,0,0,0,0,0.353,0.3535,0.3545,0.3566,0.3574,0.3625,0.3597,0.36,0.3621,0.362,0.3627,0.3627,0.362,0.3656,0.366,0.3693,0.3631,0.3746,0.3751,0.3755,0.3806,0.3816,0.3825,0,0,0,0,0,0.3527,0.3554,0.3544,0.3551,0.3583,0.3627,0.3633,0.3641,0.3623,0.3644,0.3649,0.3626,0.3688,0.3659,0.3663,0.3698,0.3744,0.375,0.3755,0.3802,0.3814,0.3824,0,0,0,0,0,0,0.3537,0.3556,0.3546,0.3576,0.3602,0.3626,0.3656,0.3649,0.3669,0.3668,0.3655,0.3657,0.3703,0.37,0.3668,0.3752,0.3715,0.3721,0.3749,0.3761,0.377,0.3818,0.3632,0,0,0,0,0,0.3542,0.3563,0.3581,0.3608,0.3624,0.3637,0.3656,0.366,0.3679,0.3686,0.3688,0.3703,0.3731,0.3742,0.3766,0.3808,0.3868,0.3837,0.3846,0.3853,0.3898,0.4027,0.4053,0.3776,0.3776,0.3776,0,0,0.3549,0.3568,0.3577,0.3612,0.3633,0.3676,0.3646,0.3687,0.3721,0.3686,0.3733,0.3736,0.3752,0.3802,0.3822,0.38,0.3962,0.3861,0.3867,0.3908,0.4036,0.4063,0.4087,0.378,0.3779,0.3779,0,0,0.3594,0.3597,0.3632,0.366,0.3701,0.3715,0.3727,0.3753,0.3764,0.3799,0.3796,0.3836,0.3847,0.3891,0.3906,0.3989,0.4009,0.3976,0.4059,0.4182,0.4206,0.4228,0.4329,0.436,0.3977,0.3978,0.3978,0,0.3607,0.3646,0.3653,0.3702,0.3736,0.3735,0.3786,0.3808,0.3839,0.387,0.3821,0.3908,0.3904,0.4009,0.4027,0.4013,0.4076,0.4004,0.4196,0.4219,0.4241,0.4339,0.4372,0.3981,0.398,0.398,0.398,0,0.3674,0.371,0.3743,0.3797,0.3834,0.3882,0.3911,0.3948,0.3942,0.3961,0.4041,0.4047,0.411,0.41,0.4079,0.4233,0.4225,0.4192,0.4166,0.4272,0.4368,0.4402,0.3986,0.3984,0.3983,0.3983,0,0,0.3687,0.3771,0.3783,0.3818,0.3886,0.3922,0.3999,0.4072,0.4133,0.4145,0.4238,0.4272,0.4281,0.4305,0.4298,0.4383,0.4562,0.435,0.4355,0.445,0.4836,0.4725,0.475,0.4558,0.4565,0.457,0.4836,0,0.3738,0.3835,0.387,0.396,0.4007,0.4048,0.4119,0.4184,0.4223,0.4312,0.4348,0.4418,0.4358,0.4386,0.4476,0.4536,0.4657,0.4494,0.4722,0.4729,0.4617,0.4788,0.4501,0.4705,0.4869,0.4875,0.4879,0,0.3783,0.3845,0.394,0.4036,0.4062,0.4117,0.4238,0.4303,0.4431,0.4463,0.4562,0.4586,0.4724,0.4642,0.4862,0.4757,0.4832,0.4869,0.4879,0.4791,0.4683,0.4629,0.476,0.459,0.4931,0.4926,0.4923,0,0.3775,0.3889,0.3963,0.3996,0.4108,0.4164,0.4229,0.4349,0.4432,0.458,0.4662,0.4798,0.4888,0.5001,0.5066,0.4989,0.5302,0.5203,0.5197,0.5188,0.5001,0.4964,0.4996,0.5428,0.5427,0.5427,0.5426,0,0.3808,0.3865,0.396,0.4,0.4102,0.4168,0.4294,0.4379,0.4529,0.4663,0.4746,0.4889,0.4987,0.5146,0.5182,0.5304,0.5418,0.5279,0.5278,0.5006,0.4969,0.4853,0.4808,0.5436,0.5434,0.5432,0.5431,0,0.3794,0.3855,0.3944,0.4061,0.4099,0.4172,0.433,0.4428,0.456,0.4752,0.4811,0.5018,0.5204,0.5299,0.5497,0.5459,0.5404,0.5593,0.5251,0.5203,0.4946,0.4914,0.4881,0.4751,0.5616,0.5616,0.5615,0,0.3802,0.3843,0.3974,0.4038,0.4095,0.4206,0.4296,0.4432,0.455,0.4831,0.4938,0.5172,0.5308,0.5539,0.551,0.5585,0.5442,0.5382,0.5178,0.4956,0.4923,0.4738,0.4617,0.4958,0.4952,0.4947,0.4943,0,0.3827,0.3868,0.395,0.4062,0.4157,0.4265,0.44,0.4487,0.4674,0.4808,0.503,0.515,0.5354,0.5272,0.5351,0.5356,0.5063,0.5283,0.5158,0.4527,0.4231,0.4091,0.4753,0.4899,0.4904,0.4907,0.4909,0.4911,0.3852,0.3906,0.4001,0.4092,0.4193,0.4286,0.431,0.4456,0.458,0.4698,0.4944,0.4985,0.5003,0.503,0.5021,0.4756,0.4817,0.4552,0.4577,0.4443,0.4172,0.4735,0.4797,0.4801,0.4804,0.4807,0.4809,0,0.3896,0.3943,0.4026,0.4107,0.4144,0.422,0.434,0.4309,0.4349,0.4511,0.4595,0.4519,0.4419,0.4409,0.4226,0.4052,0.3853,0.3938,0.3601,0.3554,0.4145,0.3962,0.3715,0.3715,0.3715,0.3715,0.3715,0.3715,0.3927,0.3989,0.3994,0.4013,0.4045,0.4004,0.4014,0.3991,0.404,0.3939,0.3845,0.3882,0.3926,0.3833,0.3606,0.352,0.3277,0.3091,0.3185,0.3564,0.3619,0.3673,0.3486,0.3143,0.3143,0.2342,0.2336,0.2332]},{"header":{"parameterUnit":"m.s-1","parameterCategory":2,"la1":30.2991,"la2":30.254,"lo1":-89.0895,"lo2":-89.0444,"dy":0.0017,"dx":0.0017,"nx":28,"ny":28,"refTime":"2024-04-23T21:00:00:Z","depth":"0","parameterNumber":3,"parameterNumberName":"V-component_of_CURRENTS"},"data":[0,0,0,0,0,0,0,0,0,0,0,0,0,0,0,0,0,0,0,0,0,0,0,0,0,0,0,0,0,0,0,0,0,0,0,0,0,0,0,0,0,0,0,0,0,0,0,0,0,0,0,0,0,0,0,0,0,0,0.0203,0.0202,0,0.014,0.014,0.0139,0.0089,0.0088,0.0088,0.0088,-0.0011,-0.0013,-0.0015,0,0,0,0,0,0,0,0,0,0,0,0,0,0.0234,0.0234,0.0203,0.0202,0.0201,0.0141,0.014,0.0139,0.0089,0.0088,0.0088,0.0087,-0.001,-0.0013,-0.0015,0,0,0,0,0,0,0,0,0,0,0,0,0,0.02,0.0234,0.0203,0.017,0.0167,0.0141,0.014,0.0138,0.0089,0.0088,0.0088,0.0087,-0.0009,-0.0012,-0.0016,-0.0026,0,0,-0.0026,-0.0028,0,0,0,0,0,0,0,0,0.0202,0.0198,0.0176,0.0173,0.0169,0.0123,0.0115,0.0082,0.0089,0.0117,0.0088,0.0087,0.0032,0.0025,0.0013,-0.0031,-0.0035,-0.0026,-0.0029,-0.003,-0.0031,0,0,0,0,0,0,0,0.0204,0.02,0.0176,0.0175,0.0171,0.0144,0.0139,0.0108,0.0076,0.0114,0.0111,0.0107,0.003,0.0017,0.001,-0.0036,-0.0026,-0.0029,-0.0031,-0.0033,-0.0093,-0.0093,0,0,0,0,0,0,0.0218,0.0203,0.0178,0.0175,0.0186,0.0144,0.0138,0.0137,0.0077,0.0068,0.0107,0.0105,0.0023,0.0014,0.0007,0.0007,-0.003,-0.0033,-0.0035,-0.0094,-0.0093,-0.0093,0,0,0,0,0,0,0.0219,0.0217,0.0181,0.0188,0.0182,0.0145,0.0143,0.0136,0.0126,0.0073,0.0063,0.0105,0.0022,0.0011,-0.0014,0.0002,-0.0035,-0.0038,-0.0094,-0.0094,-0.0093,-0.0003,0,0,0,0,0,0,0.022,0.0218,0.022,0.019,0.0182,0.0175,0.0144,0.0135,0.0125,0.0121,0.0068,0.0058,0.0021,-0.0009,-0.0017,-0.0003,-0.004,-0.0095,-0.0094,-0.0093,-0.0006,0.0001,0.0007,0,0,0,0,0,0.0222,0.0235,0.022,0.0217,0.0187,0.0176,0.017,0.014,0.0125,0.0127,0.009,0.0059,-0.001,-0.0011,-0.0021,-0.0008,-0.0095,-0.0094,-0.0093,-0.0009,-0.0001,0.0007,0,0,0,0,0,0,0.0249,0.023,0.0214,0.0219,0.0202,0.0168,0.0168,0.0148,0.0121,0.0118,0.0065,0.0053,0.0033,0.0001,0.0001,-0.0024,-0.0057,-0.0058,0.001,0.0018,0.0024,0.0077,-0.0043,0,0,0,0,0,0.0257,0.0263,0.0236,0.0241,0.0235,0.0203,0.0194,0.0177,0.015,0.0138,0.0099,0.0061,0.0028,0.0015,-0.0022,-0.003,-0.0024,-0.003,-0.0023,-0.0017,0.0018,0.003,0.0042,-0.0089,-0.0089,-0.0089,0,0,0.0267,0.026,0.0261,0.0247,0.023,0.0236,0.0196,0.0194,0.0203,0.0132,0.0127,0.0079,0.0029,0.0015,0.0004,-0.0007,0.0026,-0.0016,-0.001,0.0023,0.0033,0.0046,0.0058,-0.0089,-0.0089,-0.0089,0,0,0.03,0.0287,0.0302,0.0296,0.0282,0.0266,0.0271,0.0242,0.0233,0.022,0.0172,0.0146,0.0089,0.0068,0.0048,0.0072,0.0055,0.0047,0.0132,0.0143,0.0155,0.0165,0.0206,0.0219,0.0058,0.0058,0.0058,0,0.031,0.0334,0.0305,0.0321,0.033,0.0286,0.0313,0.0296,0.0264,0.0272,0.023,0.0177,0.0122,0.0131,0.0132,0.0091,0.0104,0.0106,0.0156,0.0166,0.0175,0.0214,0.0227,0.0063,0.0062,0.0062,0.0061,0,0.0358,0.0375,0.0388,0.0396,0.0398,0.0417,0.0397,0.0397,0.0375,0.0358,0.0354,0.0286,0.0266,0.023,0.0185,0.0223,0.0214,0.0158,0.0144,0.0195,0.0231,0.0244,0.0069,0.0068,0.0066,0.0065,0,0,0.0394,0.0417,0.0425,0.0452,0.0448,0.0463,0.0481,0.0497,0.0533,0.0481,0.0529,0.0451,0.0424,0.0401,0.0342,0.0343,0.0402,0.0289,0.0287,0.0347,0.0459,0.0403,0.0411,0.0355,0.0357,0.0359,0.0465,0,0.0444,0.0505,0.0501,0.0564,0.0597,0.0579,0.0608,0.0615,0.0606,0.0635,0.0582,0.0587,0.0487,0.0487,0.0473,0.0417,0.0438,0.0381,0.0387,0.0389,0.0345,0.0424,0.0395,0.0482,0.0477,0.0479,0.0481,0,0.0503,0.054,0.0615,0.0674,0.0688,0.0716,0.078,0.0799,0.0817,0.0814,0.0812,0.0767,0.0769,0.0669,0.0644,0.0613,0.0561,0.0512,0.0514,0.0445,0.0355,0.0425,0.0505,0.0298,0.05,0.0498,0.0497,0,0.0571,0.0628,0.0701,0.0718,0.0765,0.0806,0.0832,0.0859,0.0902,0.0941,0.0985,0.0955,0.0974,0.0894,0.0783,0.0725,0.0763,0.0664,0.0579,0.0576,0.0547,0.0536,0.0444,0.0676,0.0675,0.0675,0.0675,0,0.0644,0.0702,0.0742,0.0785,0.088,0.0885,0.0983,0.1004,0.1059,0.1149,0.1091,0.1173,0.1031,0.1017,0.0882,0.0792,0.0846,0.0637,0.0607,0.0575,0.0566,0.0377,0.0262,0.0679,0.0678,0.0677,0.0677,0,0.0708,0.0736,0.0819,0.0886,0.0916,0.0983,0.1071,0.1137,0.1186,0.1311,0.1338,0.1366,0.1365,0.122,0.1125,0.0945,0.0726,0.0792,0.0779,0.0743,0.0413,0.0305,0.0233,0.0152,0.0716,0.0716,0.0715,0,0.0748,0.0797,0.089,0.0946,0.0981,0.1072,0.1139,0.1196,0.1279,0.1444,0.1526,0.1579,0.1656,0.1496,0.1205,0.0999,0.0782,0.0778,0.0637,0.0429,0.0286,0.0208,0.0139,0.0652,0.0651,0.065,0.065,0,0.0813,0.0843,0.0907,0.102,0.1103,0.1204,0.1311,0.1401,0.1507,0.1649,0.1857,0.1948,0.1818,0.1614,0.1283,0.1089,0.0608,0.0751,0.0543,0.0251,0.0157,0.0053,0.0563,0.0642,0.0643,0.0644,0.0644,0.0644,0.0853,0.0904,0.0986,0.1092,0.1197,0.1337,0.1447,0.1589,0.1779,0.2032,0.2102,0.2303,0.1924,0.1493,0.12,0.0568,0.0594,0.0338,0.0241,0.0195,0.0054,0.0556,0.0572,0.0572,0.0573,0.0573,0.0573,0,0.0894,0.0951,0.1051,0.119,0.1318,0.1368,0.1564,0.1703,0.1964,0.2226,0.2438,0.2375,0.1907,0.1383,0.0543,0.0118,-0.0028,-0.0118,-0.0243,-0.0278,0.0184,0.0112,0.0017,0.0018,0.0018,0.0018,0.0018,0.0018,0.0921,0.1006,0.1055,0.1264,0.1378,0.1574,0.1704,0.1935,0.2158,0.2478,0.2629,0.2713,0.2244,0.0813,-0.0166,-0.0383,-0.0653,-0.071,-0.0825,-0.0552,-0.0518,-0.0485,-0.0582,-0.082,-0.0821,-0.125,-0.1255,-0.1258]}],[{"header":{"parameterUnit":"m.s-1","parameterCategory":2,"la1":30.2991,"la2":30.254,"lo1":-89.0895,"lo2":-89.0444,"dy":0.0017,"dx":0.0017,"nx":28,"ny":28,"refTime":"2024-04-23T21:00:00:Z","depth":"2","parameterNumber":2,"parameterNumberName":"U-component_of_CURRENTS"},"data":[0,0,0,0,0,0,0,0,0,0,0,0,0,0,0,0,0,0,0,0,0,0,0,0,0,0,0,0,0,0,0,0,0,0,0,0,0,0,0,0,0,0,0,0,0,0,0,0,0,0,0,0,0,0,0,0,0,0,0.2714,0.2714,0,0.2749,0.2749,0.275,0.2738,0.2737,0.2737,0.2736,0.2766,0.2768,0.2769,0,0,0,0,0,0,0,0,0,0,0,0,0,0.27,0.27,0.2714,0.2714,0.2715,0.2749,0.2749,0.275,0.2739,0.2737,0.2736,0.2735,0.2766,0.2767,0.2769,0,0,0,0,0,0,0,0,0,0,0,0,0,0.2719,0.27,0.2714,0.2712,0.2712,0.2749,0.2749,0.275,0.2739,0.2737,0.2736,0.2735,0.2765,0.2767,0.277,0.2812,0,0,0.2777,0.2778,0,0,0,0,0,0,0,0,0.2717,0.2719,0.2712,0.2712,0.2712,0.2737,0.2755,0.277,0.2739,0.273,0.2736,0.2734,0.2756,0.2759,0.2771,0.2813,0.2814,0.2777,0.2779,0.278,0.2781,0,0,0,0,0,0,0,0.2716,0.2718,0.2729,0.2712,0.2712,0.273,0.2731,0.2759,0.2751,0.2731,0.273,0.2732,0.2756,0.2768,0.2771,0.2815,0.2777,0.278,0.2781,0.2782,0.2915,0.2917,0,0,0,0,0,0,0.2707,0.2717,0.2728,0.273,0.271,0.2731,0.2732,0.2731,0.2751,0.2752,0.2733,0.2731,0.2765,0.2768,0.2772,0.2836,0.278,0.2782,0.2784,0.2913,0.2916,0.2918,0,0,0,0,0,0,0.2707,0.2708,0.2727,0.2723,0.2727,0.2732,0.2732,0.2733,0.2756,0.2752,0.2753,0.2755,0.2764,0.2769,0.2798,0.2836,0.2783,0.2786,0.2911,0.2914,0.2917,0.2955,0,0,0,0,0,0,0.2706,0.2707,0.2715,0.2722,0.2726,0.2758,0.2733,0.2734,0.2757,0.2756,0.2772,0.2773,0.2763,0.2794,0.28,0.2839,0.2788,0.2908,0.2912,0.2916,0.2951,0.2959,0.2966,0,0,0,0,0,0.2705,0.2713,0.2715,0.2717,0.2732,0.2759,0.2764,0.2764,0.276,0.2779,0.2781,0.2773,0.2823,0.2797,0.2804,0.2844,0.2906,0.2911,0.2915,0.2948,0.2958,0.2966,0,0,0,0,0,0,0.2709,0.2713,0.2714,0.2723,0.2745,0.2756,0.2777,0.278,0.28,0.28,0.2793,0.2795,0.2842,0.2841,0.2813,0.2897,0.2868,0.2874,0.289,0.2899,0.2907,0.2939,0.279,0,0,0,0,0,0.2715,0.2722,0.2735,0.2746,0.2761,0.2777,0.2792,0.2795,0.2807,0.2816,0.282,0.2837,0.2869,0.2878,0.2904,0.2945,0.2979,0.2979,0.2986,0.2992,0.3026,0.3118,0.3137,0.2933,0.2933,0.2933,0,0,0.2718,0.2723,0.2727,0.2748,0.2769,0.2795,0.2784,0.2814,0.284,0.2818,0.2856,0.2869,0.2888,0.2931,0.2953,0.2931,0.3062,0.2998,0.3003,0.3034,0.3125,0.3145,0.3162,0.2936,0.2936,0.2935,0,0,0.2735,0.2741,0.2759,0.2779,0.281,0.2823,0.2836,0.2859,0.2878,0.291,0.2911,0.2946,0.2974,0.3,0.3017,0.3087,0.3105,0.3096,0.3152,0.324,0.3258,0.3274,0.3313,0.3332,0.3091,0.3091,0.3091,0,0.2743,0.2761,0.2772,0.2798,0.2821,0.2838,0.2872,0.2898,0.2923,0.2957,0.2925,0.3011,0.3013,0.3096,0.3111,0.3106,0.3147,0.3108,0.325,0.3267,0.3283,0.3319,0.334,0.3093,0.3093,0.3093,0.3093,0,0.2769,0.2793,0.2812,0.2846,0.2875,0.291,0.2942,0.2971,0.2986,0.3017,0.3099,0.3106,0.3165,0.3164,0.3154,0.3276,0.3264,0.3253,0.3225,0.3306,0.3338,0.336,0.3097,0.3096,0.3095,0.3095,0,0,0.2761,0.282,0.2824,0.2849,0.2906,0.2923,0.2985,0.3052,0.3102,0.3133,0.3209,0.326,0.3289,0.3314,0.3318,0.3375,0.3493,0.3365,0.3369,0.34,0.3673,0.3555,0.3566,0.3514,0.3519,0.3523,0.3638,0,0.2786,0.2834,0.2864,0.2915,0.295,0.2987,0.3047,0.3107,0.3157,0.3229,0.3283,0.3355,0.3343,0.337,0.3443,0.3493,0.3558,0.3462,0.3596,0.3599,0.3482,0.3591,0.328,0.335,0.3659,0.3662,0.3665,0,0.2797,0.2834,0.2893,0.2958,0.2979,0.3015,0.3107,0.3162,0.3281,0.3325,0.3423,0.3468,0.3584,0.3538,0.3708,0.3654,0.3689,0.3703,0.3708,0.361,0.3524,0.3327,0.3376,0.37,0.3698,0.3695,0.3693,0,0.2778,0.2842,0.289,0.2911,0.2998,0.3038,0.3089,0.3201,0.327,0.34,0.3463,0.3605,0.3685,0.3771,0.3832,0.3789,0.399,0.3927,0.3853,0.3843,0.3612,0.3574,0.406,0.406,0.406,0.406,0.4059,0,0.2778,0.281,0.2881,0.291,0.2965,0.3036,0.3126,0.3189,0.3324,0.3418,0.353,0.3616,0.3758,0.3875,0.3899,0.396,0.4064,0.3903,0.389,0.361,0.3573,0.3904,0.3885,0.4064,0.4063,0.4062,0.4061,0,0.2723,0.2792,0.2835,0.2927,0.2962,0.2991,0.3119,0.3178,0.3325,0.3448,0.3496,0.3684,0.3831,0.3942,0.4081,0.4044,0.409,0.4079,0.372,0.3663,0.3857,0.3838,0.4004,0.4001,0.3999,0.3997,0.3996,0,0.2703,0.2734,0.2807,0.2844,0.2885,0.2957,0.3015,0.3155,0.3233,0.3463,0.3515,0.3717,0.38,0.3969,0.3964,0.4003,0.4092,0.3713,0.3569,0.3893,0.3864,0.3848,0.3833,0.3266,0.3258,0.3252,0.3247,0,0.2663,0.2687,0.2711,0.2778,0.2835,0.2867,0.297,0.302,0.3196,0.331,0.3437,0.3516,0.3698,0.3604,0.3693,0.366,0.3675,0.3587,0.4075,0.3319,0.3205,0.3173,0.3181,0.3193,0.3199,0.3203,0.3206,0.3208,0.2616,0.2609,0.2658,0.2683,0.2732,0.2735,0.2743,0.2861,0.2942,0.306,0.3223,0.3256,0.3331,0.3292,0.3214,0.3168,0.3403,0.323,0.3246,0.327,0.3155,0.3042,0.2977,0.2981,0.2984,0.2987,0.299,0,0.2541,0.255,0.2576,0.2593,0.2567,0.2653,0.2677,0.2647,0.2672,0.2815,0.2887,0.2686,0.2659,0.2758,0.2593,0.2579,0.2533,0.2478,0.2387,0.2444,0.2493,0.2336,0.1942,0.1939,0.1936,0.1933,0,0,0.2528,0.2497,0.2479,0.2405,0.244,0.2346,0.2326,0.2321,0.2352,0.2306,0.2331,0.2537,0.2661,0.2269,0.2217,0.2048,0.2223,0.1968,0.2813,0.2762,0.2807,0.2939,0.2763,0,0,0,0,0]},{"header":{"parameterUnit":"m.s-1","parameterCategory":2,"la1":30.2991,"la2":30.254,"lo1":-89.0895,"lo2":-89.0444,"dy":0.0017,"dx":0.0017,"nx":28,"ny":28,"refTime":"2024-04-23T21:00:00:Z","depth":"2","parameterNumber":3,"parameterNumberName":"V-component_of_CURRENTS"},"data":[0,0,0,0,0,0,0,0,0,0,0,0,0,0,0,0,0,0,0,0,0,0,0,0,0,0,0,0,0,0,0,0,0,0,0,0,0,0,0,0,0,0,0,0,0,0,0,0,0,0,0,0,0,0,0,0,0,0,0.0141,0.0141,0,0.0088,0.0087,0.0086,0.0048,0.0048,0.0048,0.0048,-0.0019,-0.0021,-0.0022,0,0,0,0,0,0,0,0,0,0,0,0,0,0.0164,0.0164,0.0141,0.0141,0.014,0.0088,0.0087,0.0086,0.0048,0.0048,0.0048,0.0048,-0.0019,-0.002,-0.0022,0,0,0,0,0,0,0,0,0,0,0,0,0,0.0135,0.0164,0.0141,0.0116,0.0113,0.0088,0.0087,0.0086,0.0048,0.0048,0.0048,0.0048,-0.0018,-0.002,-0.0023,-0.0033,0,0,-0.003,-0.0031,0,0,0,0,0,0,0,0,0.0137,0.0134,0.012,0.0118,0.0115,0.0076,0.007,0.0046,0.0048,0.0072,0.0048,0.0047,0.0012,0.0008,-0.0004,-0.0036,-0.0039,-0.003,-0.0032,-0.0033,-0.0034,0,0,0,0,0,0,0,0.0139,0.0136,0.0118,0.012,0.0116,0.0091,0.0087,0.0065,0.0043,0.0069,0.0067,0.0063,0.0011,-0.0001,-0.0006,-0.004,-0.003,-0.0032,-0.0034,-0.0035,-0.0079,-0.0078,0,0,0,0,0,0,0.0151,0.0138,0.012,0.0117,0.0127,0.0091,0.0087,0.0087,0.0043,0.0037,0.0064,0.0062,0.0003,-0.0003,-0.0008,-0.0007,-0.0033,-0.0035,-0.0037,-0.0079,-0.0079,-0.0078,0,0,0,0,0,0,0.0152,0.015,0.0122,0.0127,0.0122,0.0092,0.0092,0.0086,0.0078,0.0039,0.0032,0.0063,0.0002,-0.0005,-0.002,-0.001,-0.0036,-0.0038,-0.0079,-0.0079,-0.0078,-0.0014,0,0,0,0,0,0,0.0153,0.0151,0.0153,0.0128,0.0122,0.0119,0.0092,0.0086,0.0077,0.0074,0.0036,0.0029,0.0002,-0.0016,-0.0022,-0.0014,-0.004,-0.008,-0.0079,-0.0079,-0.0017,-0.0012,-0.0007,0,0,0,0,0,0.0154,0.0165,0.0154,0.0152,0.0128,0.012,0.0115,0.0091,0.0078,0.0081,0.0054,0.003,-0.0017,-0.0018,-0.0025,-0.0017,-0.008,-0.0079,-0.0079,-0.0019,-0.0013,-0.0008,0,0,0,0,0,0,0.0174,0.0162,0.0149,0.0155,0.0142,0.0114,0.0114,0.0098,0.0078,0.0074,0.0035,0.0027,0.0015,-0.0009,-0.0009,-0.0029,-0.0053,-0.0054,-0.0005,0.0,0.0005,0.003,-0.0042,0,0,0,0,0,0.0181,0.0187,0.0168,0.0173,0.0169,0.0142,0.0134,0.0121,0.01,0.0091,0.0064,0.0035,0.0011,0.0001,-0.0025,-0.0033,-0.0054,-0.0034,-0.0029,-0.0025,-0.001,-0.0033,-0.0028,-0.0076,-0.0076,-0.0076,0,0,0.0188,0.0183,0.0185,0.0178,0.0163,0.0169,0.0137,0.0134,0.014,0.0087,0.0085,0.005,0.0012,0.0001,-0.0006,-0.0016,-0.0024,-0.0024,-0.002,-0.0007,-0.0032,-0.0027,-0.0023,-0.0076,-0.0076,-0.0076,0,0,0.0214,0.0204,0.0219,0.0215,0.0205,0.0191,0.0195,0.0173,0.0165,0.0156,0.0119,0.0095,0.006,0.0037,0.002,0.0036,-0.0,0.0023,0.007,0.0048,0.0052,0.0055,0.0031,0.0031,0.0028,0.0028,0.0028,0,0.0221,0.0242,0.0222,0.0237,0.0243,0.0208,0.0229,0.0214,0.0191,0.019,0.0166,0.0115,0.0079,0.0069,0.0072,0.0048,0.0029,0.0053,0.0055,0.0058,0.0061,0.0034,0.0034,0.0031,0.0031,0.0031,0.003,0,0.026,0.0275,0.0286,0.0296,0.0298,0.0312,0.0295,0.0292,0.0273,0.0255,0.0239,0.0187,0.0162,0.0139,0.011,0.0109,0.0087,0.0063,0.0045,0.007,0.004,0.0039,0.0036,0.0035,0.0034,0.0033,0,0,0.0285,0.0309,0.0315,0.0337,0.0336,0.0347,0.0356,0.036,0.0376,0.0332,0.0348,0.029,0.0259,0.0238,0.0193,0.0169,0.0159,0.013,0.0127,0.0113,0.011,0.0072,0.0066,0.0135,0.0135,0.0135,0.0081,0,0.0325,0.0376,0.0375,0.0424,0.0452,0.0432,0.0453,0.0448,0.0432,0.0435,0.0375,0.0365,0.0298,0.0289,0.0255,0.0188,0.0159,0.0176,0.0082,0.0079,0.0049,0.0065,0.0091,0.0043,0.008,0.0079,0.0079,0,0.0371,0.0403,0.0464,0.0508,0.0519,0.0539,0.0572,0.0588,0.0572,0.0561,0.0529,0.0477,0.0437,0.0376,0.0277,0.0292,0.0212,0.0149,0.0145,0.0091,0.004,0.0024,0.0039,0.0077,0.0077,0.0077,0.0077,0,0.0422,0.0469,0.0527,0.0541,0.0578,0.0603,0.0623,0.0626,0.0665,0.0644,0.0664,0.0584,0.0571,0.0456,0.0322,0.0303,0.0212,0.0166,0.0053,0.0049,0.0044,0.0039,0.0097,0.0097,0.0097,0.0097,0.0097,0,0.0476,0.0522,0.0556,0.0591,0.0668,0.0668,0.0745,0.0746,0.0776,0.0846,0.0743,0.0772,0.0593,0.0512,0.0366,0.0216,0.0244,0.007,0.0037,0.0065,0.0063,0.007,0.0067,0.0095,0.0095,0.0096,0.0096,0,0.0525,0.0549,0.062,0.0672,0.0699,0.0754,0.0841,0.0896,0.0908,0.0997,0.0999,0.0926,0.0819,0.0628,0.0449,0.0292,0.0135,0.0071,0.0113,0.0084,-0.0028,-0.0027,-0.0064,-0.0066,-0.0067,-0.0068,-0.0069,0,0.0555,0.0598,0.0686,0.0745,0.0774,0.0858,0.0927,0.0963,0.1037,0.1105,0.116,0.1074,0.1033,0.0738,0.0449,0.0179,0.0144,0.0009,-0.0035,-0.0014,-0.0043,-0.0039,-0.0036,-0.0019,-0.002,-0.002,-0.002,0,0.0613,0.0644,0.0706,0.083,0.0914,0.1018,0.1119,0.1201,0.1272,0.1338,0.1409,0.1376,0.1096,0.0816,0.0429,0.0243,0.0046,-0.0011,0.0018,0.0014,0.0023,-0.0004,-0.0001,-0.0024,-0.0024,-0.0023,-0.0023,-0.0023,0.0659,0.0711,0.0805,0.0922,0.103,0.1174,0.1274,0.1384,0.152,0.1624,0.1584,0.1528,0.1207,0.0703,0.0381,0.0027,0.0036,-0.0102,-0.0098,-0.0094,-0.0083,-0.0078,-0.0141,-0.0142,-0.0142,-0.0142,-0.0142,0,0.0719,0.0783,0.0893,0.1043,0.1172,0.1223,0.1403,0.1494,0.1657,0.172,0.1749,0.1434,0.1123,0.076,0.0238,-0.0078,-0.0094,-0.018,-0.0127,-0.0121,-0.0116,-0.0105,-0.0169,-0.017,-0.0171,-0.0172,0,0,0.0755,0.0862,0.0916,0.1137,0.1251,0.1422,0.153,0.1663,0.1738,0.1777,0.1733,0.1646,0.1217,0.0835,0.042,0.0126,0.0072,0.0064,0.0118,0.0236,0.0245,-0.0041,-0.0014,0,0,0,0,0]}],[{"header":{"parameterUnit":"m.s-1","parameterCategory":2,"la1":30.2991,"la2":30.254,"lo1":-89.0895,"lo2":-89.0444,"dy":0.0017,"dx":0.0017,"nx":28,"ny":28,"refTime":"2024-04-23T21:00:00:Z","depth":"4","parameterNumber":2,"parameterNumberName":"U-component_of_CURRENTS"},"data":[0,0,0,0,0,0,0,0,0,0,0,0,0,0,0,0,0,0,0,0,0,0,0,0,0,0,0,0,0,0,0,0,0,0,0,0,0,0,0,0,0,0,0,0,0,0,0,0,0,0,0,0,0,0,0,0,0,0,0.1701,0.1702,0,0.1747,0.1747,0.1747,0.1796,0.1797,0.1798,0.1799,0.1845,0.1846,0.1846,0,0,0,0,0,0,0,0,0,0,0,0,0,0.1645,0.1646,0.1701,0.1702,0.1702,0.1747,0.1747,0.1747,0.1796,0.1797,0.1798,0.1799,0.1845,0.1846,0.1846,0,0,0,0,0,0,0,0,0,0,0,0,0,0.1675,0.1646,0.1701,0.1734,0.1738,0.1747,0.1747,0.1747,0.1795,0.1797,0.1798,0.18,0.1845,0.1846,0.1846,0.182,0,0,0.1848,0.1848,0,0,0,0,0,0,0,0,0.1673,0.1676,0.1728,0.1732,0.1736,0.177,0.1745,0.1773,0.1795,0.177,0.1799,0.18,0.1821,0.1824,0.1825,0.1822,0.1824,0.1848,0.1848,0.1848,0.1849,0,0,0,0,0,0,0,0.1671,0.1675,0.1716,0.1729,0.1734,0.1744,0.175,0.175,0.1784,0.1772,0.1777,0.1787,0.1823,0.1824,0.1826,0.1825,0.1848,0.1848,0.1849,0.1849,0.1921,0.1923,0,0,0,0,0,0,0.1671,0.1673,0.1714,0.1717,0.1711,0.1744,0.175,0.1755,0.1785,0.1791,0.1785,0.1789,0.1822,0.1825,0.1828,0.1906,0.1848,0.1849,0.1849,0.1919,0.1921,0.1923,0,0,0,0,0,0,0.1669,0.1674,0.1712,0.1699,0.1705,0.1744,0.1749,0.1755,0.1794,0.1795,0.1802,0.1823,0.1824,0.1827,0.1871,0.1904,0.1849,0.185,0.1917,0.192,0.1922,0.1992,0,0,0,0,0,0,0.1667,0.1673,0.1692,0.1699,0.1706,0.1743,0.1748,0.1755,0.1797,0.1803,0.1828,0.1832,0.1825,0.187,0.1871,0.1904,0.185,0.1915,0.1919,0.1921,0.1988,0.1997,0.2004,0,0,0,0,0,0.1665,0.1678,0.1692,0.1699,0.1726,0.1745,0.175,0.1779,0.1798,0.1819,0.1846,0.1833,0.189,0.1872,0.1873,0.1906,0.1914,0.1918,0.1921,0.1984,0.1995,0.2004,0,0,0,0,0,0,0.1667,0.1685,0.17,0.1721,0.1746,0.1755,0.1782,0.1799,0.1834,0.1853,0.1852,0.1858,0.191,0.1897,0.1877,0.1936,0.19,0.1904,0.1948,0.1958,0.1966,0.1981,0.185,0,0,0,0,0,0.1675,0.1693,0.1711,0.1734,0.1749,0.1772,0.1791,0.1812,0.1837,0.1856,0.1875,0.1897,0.1916,0.1932,0.1945,0.1972,0.1979,0.1995,0.2003,0.201,0.2024,0.2068,0.2082,0.1935,0.1935,0.1935,0,0,0.1682,0.1697,0.1709,0.1737,0.1759,0.1784,0.1788,0.1828,0.1859,0.1853,0.1913,0.193,0.1932,0.1972,0.1993,0.1971,0.2056,0.2015,0.2021,0.2031,0.2074,0.2088,0.2101,0.1937,0.1937,0.1937,0,0,0.1692,0.1722,0.1736,0.1761,0.1804,0.1819,0.1839,0.1873,0.1904,0.195,0.1962,0.2007,0.2027,0.2045,0.205,0.211,0.2102,0.2114,0.2164,0.2207,0.222,0.2231,0.2259,0.2272,0.2113,0.2114,0.2114,0,0.1707,0.1722,0.1746,0.177,0.1798,0.1839,0.1866,0.1897,0.1946,0.1976,0.1983,0.2051,0.2061,0.2108,0.2139,0.213,0.215,0.2125,0.2218,0.223,0.224,0.2266,0.2279,0.2117,0.2117,0.2117,0.2116,0,0.1716,0.1746,0.1762,0.1804,0.1838,0.1872,0.1916,0.1968,0.2011,0.2038,0.2112,0.2133,0.2177,0.2185,0.2183,0.226,0.2249,0.2227,0.2193,0.2259,0.2282,0.2295,0.2123,0.2122,0.212,0.2119,0,0,0.1699,0.1756,0.1765,0.179,0.1862,0.1884,0.1956,0.2016,0.2066,0.2125,0.2184,0.2238,0.2269,0.228,0.2289,0.2327,0.2421,0.2319,0.2319,0.2347,0.2518,0.2354,0.2352,0.242,0.2423,0.2425,0.2505,0,0.1703,0.1744,0.1776,0.1829,0.1856,0.1924,0.1978,0.2048,0.2111,0.2181,0.223,0.2293,0.2297,0.2335,0.2379,0.2418,0.2459,0.2401,0.245,0.2452,0.2298,0.2362,0.2434,0.2514,0.2517,0.2519,0.2521,0,0.1695,0.1727,0.1774,0.1841,0.186,0.1908,0.2013,0.2067,0.2176,0.2225,0.231,0.2354,0.2451,0.243,0.2541,0.2509,0.2531,0.2543,0.2546,0.2378,0.2311,0.2435,0.2544,0.2542,0.254,0.2539,0.2537,0,0.1653,0.1722,0.176,0.1786,0.187,0.1921,0.1985,0.2094,0.2148,0.2279,0.2339,0.2438,0.2514,0.2564,0.2621,0.2599,0.2715,0.2677,0.2544,0.2532,0.2625,0.2612,0.2745,0.2745,0.2745,0.2745,0.2745,0,0.1623,0.1656,0.1752,0.1767,0.1823,0.1909,0.1991,0.2062,0.2184,0.2242,0.2373,0.2433,0.256,0.2637,0.2655,0.2644,0.2751,0.2568,0.2546,0.2651,0.2641,0.2634,0.262,0.2748,0.2747,0.2746,0.2746,0,0.1553,0.1618,0.1657,0.1757,0.1797,0.1843,0.198,0.2032,0.2174,0.2261,0.2314,0.2477,0.2578,0.2663,0.2751,0.268,0.2682,0.2645,0.2766,0.2748,0.2462,0.2451,0.2503,0.2497,0.2493,0.249,0.2487,0,0.1514,0.153,0.1628,0.1657,0.1706,0.1803,0.1859,0.2003,0.2061,0.2256,0.2276,0.2445,0.253,0.2538,0.2631,0.2652,0.2617,0.2599,0.2517,0.2465,0.244,0.2436,0.2431,0.248,0.2479,0.2478,0.2477,0,0.1424,0.1472,0.1501,0.1567,0.1628,0.1679,0.1782,0.181,0.197,0.2124,0.2195,0.2258,0.2365,0.2437,0.248,0.2481,0.2599,0.2554,0.2562,0.2484,0.2438,0.2417,0.2417,0.2462,0.2464,0.2465,0.2466,0,0.1355,0.1353,0.1405,0.1449,0.1516,0.1527,0.1601,0.1681,0.1757,0.1976,0.1995,0.2172,0.2334,0.2348,0.2379,0.2382,0.234,0.225,0.2273,0.229,0.2182,0.209,0.2001,0,0,0,0,0,0.1275,0.1261,0.1288,0.1312,0.1374,0.142,0.1527,0.1612,0.178,0.1773,0.188,0.1965,0.2042,0.2142,0.2102,0.2273,0.2337,0.2214,0.2242,0.238,0.2397,0.2288,0,0,0,0,0,0,0.1218,0.1234,0.1237,0.1192,0.1201,0.1248,0.1313,0.1428,0.1447,0.1635,0.1699,0.1842,0.1959,0.205,0.2068,0.2093,0.2066,0.2329,0.2323,0.237,0.2386,0.2399,0.2294,0,0,0,0,0]},{"header":{"parameterUnit":"m.s-1","parameterCategory":2,"la1":30.2991,"la2":30.254,"lo1":-89.0895,"lo2":-89.0444,"dy":0.0017,"dx":0.0017,"nx":28,"ny":28,"refTime":"2024-04-23T21:00:00:Z","depth":"4","parameterNumber":3,"parameterNumberName":"V-component_of_CURRENTS"},"data":[0,0,0,0,0,0,0,0,0,0,0,0,0,0,0,0,0,0,0,0,0,0,0,0,0,0,0,0,0,0,0,0,0,0,0,0,0,0,0,0,0,0,0,0,0,0,0,0,0,0,0,0,0,0,0,0,0,0,0.0126,0.0125,0,0.0095,0.0095,0.0094,0.0072,0.0072,0.0072,0.0072,0.0035,0.0034,0.0034,0,0,0,0,0,0,0,0,0,0,0,0,0,0.0136,0.0136,0.0126,0.0125,0.0125,0.0095,0.0095,0.0094,0.0072,0.0072,0.0072,0.0072,0.0036,0.0035,0.0034,0,0,0,0,0,0,0,0,0,0,0,0,0,0.0121,0.0136,0.0126,0.0111,0.0109,0.0095,0.0095,0.0094,0.0072,0.0072,0.0072,0.0072,0.0036,0.0035,0.0033,0.003,0,0,0.003,0.0029,0,0,0,0,0,0,0,0,0.0122,0.012,0.0113,0.0112,0.011,0.0088,0.0085,0.0073,0.0072,0.0086,0.0072,0.0072,0.0053,0.005,0.0044,0.0028,0.0027,0.0029,0.0029,0.0028,0.0028,0,0,0,0,0,0,0,0.0123,0.0121,0.0113,0.0113,0.0111,0.0096,0.0094,0.0082,0.007,0.0085,0.0083,0.0081,0.0052,0.0045,0.0043,0.0026,0.0029,0.0028,0.0028,0.0027,0.0011,0.0011,0,0,0,0,0,0,0.0129,0.0123,0.0114,0.0112,0.0116,0.0096,0.0093,0.0095,0.0071,0.0067,0.0081,0.008,0.0048,0.0045,0.0042,0.0046,0.0028,0.0027,0.0026,0.001,0.0011,0.0011,0,0,0,0,0,0,0.013,0.0129,0.0115,0.0117,0.0114,0.0096,0.0098,0.0094,0.0092,0.0068,0.0064,0.0082,0.0047,0.0044,0.0037,0.0044,0.0026,0.0025,0.001,0.0011,0.0011,0.0049,0,0,0,0,0,0,0.013,0.013,0.0133,0.0117,0.0114,0.0116,0.0098,0.0094,0.009,0.0089,0.0068,0.0064,0.0047,0.0039,0.0036,0.0042,0.0024,0.001,0.001,0.0011,0.0047,0.005,0.0053,0,0,0,0,0,0.0131,0.014,0.0133,0.0132,0.012,0.0116,0.0114,0.0099,0.0091,0.0095,0.0079,0.0065,0.0041,0.0039,0.0034,0.0041,0.0009,0.001,0.0011,0.0045,0.005,0.0053,0,0,0,0,0,0,0.0144,0.0138,0.013,0.0137,0.013,0.0113,0.0114,0.0104,0.0094,0.0093,0.0069,0.0064,0.006,0.0047,0.0045,0.0038,0.0023,0.0023,0.005,0.0054,0.0057,0.0069,0.0023,0,0,0,0,0,0.0149,0.0157,0.0145,0.015,0.0148,0.0132,0.0128,0.012,0.0109,0.0104,0.0089,0.0073,0.006,0.0054,0.0041,0.0039,0.0013,0.004,0.0043,0.0046,0.0053,0.0017,0.0017,0.0014,0.0014,0.0014,0,0,0.0155,0.0153,0.0156,0.0154,0.0146,0.0152,0.013,0.013,0.0136,0.0102,0.0105,0.0083,0.0061,0.0057,0.0055,0.0048,0.0032,0.0047,0.0049,0.0055,0.0017,0.0018,0.0018,0.0014,0.0014,0.0014,0,0,0.0174,0.017,0.0182,0.0181,0.0177,0.0169,0.0173,0.016,0.0156,0.0154,0.0129,0.0113,0.0098,0.008,0.007,0.0083,0.0049,0.008,0.0106,0.0071,0.0071,0.007,0.0033,0.0028,0.0082,0.0082,0.0082,0,0.0179,0.0196,0.0185,0.0197,0.0203,0.0181,0.0198,0.0189,0.0177,0.0175,0.0162,0.0129,0.0108,0.0098,0.0102,0.009,0.0064,0.0094,0.0075,0.0074,0.0073,0.0034,0.0029,0.0084,0.0084,0.0084,0.0084,0,0.0207,0.0221,0.023,0.0241,0.0244,0.0256,0.0246,0.0245,0.0235,0.0223,0.021,0.0175,0.0157,0.0144,0.0128,0.0114,0.0095,0.0081,0.0065,0.0075,0.0034,0.0028,0.0087,0.0086,0.0086,0.0085,0,0,0.0222,0.0245,0.025,0.0269,0.0272,0.0282,0.0289,0.0292,0.0302,0.0273,0.0277,0.0241,0.0216,0.0203,0.0172,0.014,0.0105,0.0114,0.0111,0.0077,0.0024,0.0014,0.0006,0.0087,0.0086,0.0086,-0.0004,0,0.0249,0.0289,0.0292,0.0332,0.0353,0.0343,0.0358,0.0355,0.0343,0.0339,0.0291,0.0284,0.0241,0.0235,0.0193,0.0132,0.0093,0.0131,0.0019,0.0016,0.0006,-0.0,0.0084,-0.0009,-0.001,-0.0011,-0.0012,0,0.0279,0.0305,0.0352,0.0391,0.04,0.0419,0.0442,0.0455,0.0436,0.0425,0.0394,0.0354,0.0306,0.027,0.0157,0.0184,0.0111,0.0054,0.0049,0.0025,-0.0005,-0.002,-0.0023,-0.0022,-0.0021,-0.002,-0.002,0,0.0308,0.035,0.0395,0.0407,0.0442,0.0463,0.0483,0.0482,0.051,0.0484,0.0491,0.0412,0.039,0.0282,0.016,0.016,0.0029,0.0012,-0.0071,-0.0073,-0.0054,-0.0052,-0.007,-0.007,-0.0069,-0.0069,-0.0069,0,0.034,0.0377,0.0416,0.0442,0.0505,0.0511,0.0571,0.0572,0.0587,0.0623,0.0547,0.0544,0.0394,0.03,0.0175,0.0034,0.0036,-0.0067,-0.0095,-0.0036,-0.0032,-0.0059,-0.0056,-0.0073,-0.0072,-0.0071,-0.0071,0,0.0365,0.0389,0.0449,0.0499,0.0525,0.0572,0.0649,0.0687,0.0691,0.0732,0.0731,0.0648,0.0519,0.0354,0.0175,0.007,-0.0075,-0.0127,-0.0053,-0.0076,-0.0159,-0.0153,-0.0226,-0.0227,-0.0228,-0.0229,-0.0229,0,0.038,0.0414,0.0498,0.0548,0.0578,0.0653,0.0709,0.074,0.0785,0.0794,0.0816,0.0709,0.0628,0.0371,0.0185,-0.0066,-0.01,-0.0178,-0.017,-0.0154,-0.0175,-0.0167,-0.0161,-0.0231,-0.0231,-0.0231,-0.0232,0,0.0411,0.0445,0.0498,0.0602,0.0675,0.0761,0.0839,0.0879,0.0914,0.0918,0.0888,0.0749,0.0602,0.0382,0.0183,0.0004,-0.0131,-0.0188,-0.0188,-0.018,-0.016,-0.0179,-0.0171,-0.0235,-0.0234,-0.0234,-0.0234,0,0.044,0.0481,0.0558,0.0649,0.0748,0.0837,0.0877,0.0927,0.097,0.097,0.0954,0.0787,0.069,0.0418,0.0235,0.0053,0.0008,-0.0048,-0.0055,-0.0054,0.0017,0.0069,0.0042,0,0,0,0,0,0.0464,0.0512,0.0597,0.0699,0.0799,0.0857,0.0952,0.0981,0.101,0.1002,0.0983,0.0841,0.0573,0.0456,0.0273,0.0203,-0.0036,-0.0019,-0.0105,-0.0252,-0.0249,-0.0196,0,0,0,0,0,0,0.0481,0.0559,0.0595,0.0723,0.0798,0.091,0.0972,0.0995,0.0992,0.099,0.0852,0.0789,0.0527,0.0673,0.0266,0.021,0.013,-0.0143,-0.0147,-0.0254,-0.0251,-0.0248,-0.0193,0,0,0,0,0]}]]